Regional Weather Roundup
Issued by NWS

Home | Current Version | Previous Version | Graphics & Text | Print | Product List | Glossary On
Versions: 1 2 3 4 5 6 7 8 9 10 11 12 13 14 15 16 17 18 19 20 21 22 23 24 25 26 27 28 29 30 31 32 33 34 35 36 37 38 39 40 41 42 43 44 45 46 47 48 49 50
000
ASUS43 KLMK 221402
RWRKY
KENTUCKY REGIONAL WEATHER ROUNDUP
NATIONAL WEATHER SERVICE LOUISVILLE KY
900 AM EST THU FEB 22 2018

NOTE "FAIR" INDICATES FEW OR NO CLOUDS BELOW 12,000 FEET
WITH NO SIGNIFICANT WEATHER AND/OR OBSTRUCTIONS TO VISIBILITY.

KYZ001>023-026-027-061>063-070>075-221500-
WESTERN AND SOUTH CENTRAL KENTUCKY

CITY           SKY/WX    TMP DP  RH WIND       PRES   REMARKS
PADUCAH        CLOUDY    43  41  93 NE6       30.35R FOG
HENDERSON      CLOUDY    44  42  93 NE10      30.36R
OWENSBORO      CLOUDY    46  44  93 N9        30.35S
HOPKINSVILLE   CLOUDY    47  47 100 NW8       30.33R
BOWLING GREEN  CLOUDY    50  49  96 E6        30.33R
GLASGOW        NOT AVBL
$$

KYZ024-025-028>034-038-045-046-053-221500-
NORTH CENTRAL KENTUCKY

CITY           SKY/WX    TMP DP  RH WIND       PRES   REMARKS
LOUISVILLE/SDF LGT RAIN  44  41  89 N10       30.39R FOG
LOUISVILLE/LOU CLOUDY    44  41  89 N7        30.40R
FORT KNOX      RAIN      43  43  99 N8        30.37R FOG
$$

KYZ035>037-039>044-047>052-055>060-089>105-221500-
NORTHEAST KENTUCKY

CITY           SKY/WX    TMP DP  RH WIND       PRES   REMARKS
LEXINGTON      CLOUDY    45  41  86 NE10      30.34R
COVINGTON      CLOUDY    40  40 100 E18G28    30.33S WCI  31
FRANKFORT      CLOUDY    43  39  86 E6        30.34R
$$

KYZ054-064>069-076>088-106>120-221500-
SOUTHEAST KENTUCKY

CITY           SKY/WX    TMP DP  RH WIND       PRES   REMARKS
JACKSON        LGT RAIN  51  50  96 VRB3      30.36R VSB 1/4
LONDON         LGT RAIN  61  59  93 SW3       30.34R
SOMERSET       NOT AVBL
MIDDLESBORO    PTSUNNY   69  60  74 S8G24     30.37R
MONTICELLO     NOT AVBL
$$





USA.gov is the U.S. government's official web portal to all federal, state and local government web resources and services.